TimeEST,TemperatureF,Dew PointF,Humidity,Sea Level PressureIn,VisibilityMPH,Wind Direction,Wind SpeedMPH,Gust SpeedMPH,PrecipitationIn,Events,Conditions,WindDirDegrees,DateUTC
12:51 AM,30.0,24.1,79,30.44,10.0,SW,4.6,-,N/A,,Clear,220,2013-11-14 05:51:00
1:51 AM,30.0,24.1,79,30.43,10.0,SW,4.6,-,N/A,,Clear,220,2013-11-14 06:51:00
2:51 AM,-9999,-9999,N/A,30.42,-9999.0,North,-9999.0,-,N/A,,Unknown,0,2013-11-14 07:51:00
3:51 AM,-9999,-9999,N/A,30.40,-9999.0,North,-9999.0,-,N/A,,Unknown,0,2013-11-14 08:51:00
4:51 AM,-9999,-9999,N/A,30.42,-9999.0,North,-9999.0,-,N/A,,Unknown,0,2013-11-14 09:51:00
5:51 AM,-9999,-9999,N/A,30.42,-9999.0,North,-9999.0,-,N/A,,Unknown,0,2013-11-14 10:51:00
6:51 AM,-9999,-9999,N/A,30.43,-9999.0,North,-9999.0,-,N/A,,Unknown,0,2013-11-14 11:51:00
7:51 AM,-9999,-9999,N/A,30.43,-9999.0,North,-9999.0,-,N/A,,Unknown,0,2013-11-14 12:51:00
8:51 AM,-9999,-9999,N/A,30.45,-9999.0,North,-9999.0,-,N/A,,Unknown,0,2013-11-14 13:51:00
9:51 AM,-9999,-9999,N/A,30.43,-9999.0,North,-9999.0,-,N/A,,Unknown,0,2013-11-14 14:51:00
10:51 AM,-9999,-9999,N/A,30.43,-9999.0,North,-9999.0,-,N/A,,Unknown,0,2013-11-14 15:51:00
11:51 AM,53.1,18.0,25,30.38,10.0,WSW,11.5,-,N/A,,Clear,240,2013-11-14 16:51:00
12:51 PM,55.9,15.1,20,30.35,10.0,SW,15.0,-,N/A,,Clear,220,2013-11-14 17:51:00
1:51 PM,57.9,17.1,20,30.32,10.0,SW,15.0,-,N/A,,Clear,220,2013-11-14 18:51:00
2:51 PM,57.9,17.1,20,30.32,10.0,SW,13.8,-,N/A,,Clear,220,2013-11-14 19:51:00
3:51 PM,57.0,21.0,25,30.33,10.0,SSW,11.5,-,N/A,,Clear,210,2013-11-14 20:51:00
4:51 PM,52.0,21.0,30,30.32,10.0,SSW,10.4,-,N/A,,Clear,210,2013-11-14 21:51:00
5:51 PM,46.0,23.0,40,30.32,10.0,South,6.9,-,N/A,,Clear,190,2013-11-14 22:51:00
6:51 PM,45.0,25.0,46,30.32,10.0,SSW,8.1,-,N/A,,Clear,210,2013-11-14 23:51:00
7:51 PM,43.0,26.1,51,30.32,10.0,SSW,8.1,-,N/A,,Clear,210,2013-11-15 00:51:00
8:51 PM,43.0,25.0,49,30.32,10.0,SSW,9.2,-,N/A,,Clear,210,2013-11-15 01:51:00
9:51 PM,42.1,26.1,53,30.33,10.0,SW,9.2,-,N/A,,Clear,220,2013-11-15 02:51:00
10:51 PM,41.0,26.1,55,30.33,10.0,SW,8.1,-,N/A,,Clear,220,2013-11-15 03:51:00
11:51 PM,37.9,25.0,60,30.33,10.0,SW,9.2,-,N/A,,Clear,220,2013-11-15 04:51:00